Weather History for KSGF - May, 2013

Change the Weather History Date:

Thursday, May 2, 2013

  Actual Average Record
Temperature  
Mean Temperature 48 °F 61 °F  
Max Temperature 63 °F 72 °F 85 °F (1968)
Min Temperature 33 °F 50 °F 30 °F (1961)
Degree Days  
Heating Degree Days 17 5  
Month to date heating degree days 17 11  
Since 1 July heating degree days 4369 4485  
Cooling Degree Days 0 1  
Month to date cooling degree days 4 2  
Year to date cooling degree days 21 27  
Moisture  
Dew Point 43 °F    
Average Humidity 84    
Maximum Humidity 93    
Minimum Humidity 74    
Precipitation  
Precipitation 0.32 in 0.18 in 2.24 in (1946)
Month to date precipitation 0.32 0.35  
Year to date precipitation 16.07 13.28  
Snow  
Snow T in - - ()
Month to date snowfall T  
Since 1 July snowfall 11.3  
Snow Depth T in    
Sea Level Pressure  
Sea Level Pressure 30.18 in    
Wind  
Wind Speed 14 mph (NNW)    
Max Wind Speed 24 mph    
Max Gust Speed 31 mph    
Visibility 9 miles    
Events Rain , Snow    
T = Trace of Precipitation, MM = Missing Value Source: NWS Daily Summary

Daily Weather History Graph

Daily Weather History Graph

Search for Another Location

Airport or City:

Trip Planner

Search our weather history database for the weather conditions in past years. The results will help you decide how hot, cold, wet, or windy it might be!

Date:

Astronomy

May. 02, 2013 Rise Set
Actual Time 6:17 AM CDT 8:04 PM CDT
Civil Twilight 5:49 AM CDT 8:32 PM CDT
Nautical Twilight 5:15 AM CDT 9:06 PM CDT
Astronomical Twilight 4:39 AM CDT 9:42 PM CDT
Moon 1:55 AM CDT 1:03 PM CDT
Length of Visible Light 14h 43m
Length of Day
13h 46m
Waning Gibbous, 47% of the Moon is Illuminated
May 2
Waning Gibbous
May 9
New
May 17
First Quarter
May 24
Full
May 31
Last Quarter

Hourly Weather History & Observations

Time (CDT) Temp. Windchill Dew Point Humidity Pressure Visibility Wind Dir Wind Speed Gust Speed Precip Events Conditions
12:52 AM 62.1 °F - 59.0 °F 90% 30.04 in 10.0 mi South 4.6 mph - N/A   Clear
1:52 AM 60.1 °F - 57.0 °F 90% 30.04 in 10.0 mi SSE 5.8 mph - N/A   Clear
2:52 AM 59.0 °F - 57.0 °F 93% 30.04 in 10.0 mi Calm Calm - N/A   Scattered Clouds
3:52 AM 57.9 °F - 55.0 °F 90% 30.07 in 10.0 mi NW 10.4 mph - N/A   Overcast
4:52 AM 54.0 °F - 50.0 °F 86% 30.11 in 10.0 mi NNW 11.5 mph - N/A   Mostly Cloudy
5:52 AM 50.0 °F - 45.0 °F 83% 30.14 in 10.0 mi NNW 16.1 mph - N/A   Overcast
6:21 AM 48.9 °F - 44.1 °F 83% 30.17 in 10.0 mi NNW 16.1 mph - N/A   Overcast
6:40 AM 48.0 °F - 44.1 °F 86% 30.17 in 10.0 mi NNW 17.3 mph - N/A   Overcast
6:52 AM 48.0 °F - 44.1 °F 86% 30.17 in 10.0 mi NNW 16.1 mph - N/A   Overcast
7:52 AM 48.0 °F - 42.1 °F 80% 30.19 in 10.0 mi North 10.4 mph - N/A   Overcast
8:52 AM 50.0 °F - 44.1 °F 80% 30.19 in 10.0 mi North 9.2 mph - N/A   Overcast
9:52 AM 50.0 °F - 43.0 °F 77% 30.20 in 10.0 mi NNW 12.7 mph - N/A   Overcast
10:52 AM 48.9 °F - 43.0 °F 80% 30.23 in 10.0 mi NNW 16.1 mph - N/A   Overcast
11:52 AM 48.9 °F - 43.0 °F 80% 30.22 in 10.0 mi North 16.1 mph - N/A   Overcast
12:52 PM 48.0 °F - 42.1 °F 80% 30.22 in 10.0 mi North 12.7 mph - N/A   Overcast
1:52 PM 48.0 °F - 42.1 °F 80% 30.21 in 10.0 mi North 15.0 mph - N/A   Overcast
2:52 PM 48.0 °F - 42.1 °F 80% 30.21 in 10.0 mi North 18.4 mph - N/A   Overcast
3:52 PM 45.0 °F 37.9 °F 39.9 °F 82% 30.22 in 10.0 mi NNW 16.1 mph 25.3 mph N/A   Overcast
4:37 PM 43.0 °F 35.1 °F 39.9 °F 89% 30.21 in 10.0 mi NNW 17.3 mph - N/A   Overcast
4:52 PM 43.0 °F 34.8 °F 39.9 °F 89% 30.22 in 8.0 mi NNW 18.4 mph - 0.00 in Rain Light Rain
5:52 PM 42.1 °F 34.2 °F 39.9 °F 92% 30.22 in 4.0 mi NNW 16.1 mph - 0.01 in Rain Light Rain
6:52 PM 41.0 °F 33.1 °F 39.0 °F 93% 30.23 in 4.0 mi NNW 15.0 mph - 0.03 in Rain Rain
7:35 PM 39.9 °F 31.8 °F 37.9 °F 93% 30.22 in 10.0 mi North 15.0 mph 26.5 mph 0.01 in   Overcast
7:52 PM 39.9 °F 32.5 °F 37.9 °F 93% 30.24 in 9.0 mi NNW 12.7 mph - 0.01 in Rain Light Rain
8:52 PM 39.0 °F 29.0 °F 37.0 °F 93% 30.23 in 4.0 mi North 20.7 mph - 0.02 in Rain Light Rain
9:52 PM 37.0 °F 26.7 °F 35.1 °F 93% 30.25 in 4.0 mi NNW 19.6 mph 31.1 mph 0.03 in Snow Light Snow
10:03 PM 37.0 °F 27.7 °F 35.1 °F 93% 30.23 in 9.0 mi NNW 16.1 mph 24.2 mph 0.01 in Rain Light Rain
10:12 PM 36.0 °F 25.6 °F 35.1 °F 97% 30.22 in 5.0 mi NNW 18.4 mph - 0.02 in Rain Rain
10:52 PM 35.1 °F 24.5 °F 34.0 °F 96% 30.23 in 5.0 mi NNW 18.4 mph - 0.04 in Rain Light Rain
11:52 PM 35.1 °F 25.5 °F 34.0 °F 96% 30.21 in 10.0 mi North 15.0 mph - 0.07 in Rain Light Rain